Location: Champignolles
(47.0543°N, 4.5663°E)
Time: 13:29:26
(UTC+00:00)

Cosmos 923 Rocket - Visible Passes

Search period start: 12 April 2021 00:00
Search period end: 22 April 2021 00:00
Orbit: 759 x 784 km, 74.0° (Epoch: 11 April)

Date Brightness Start Highest point End Pass type
(mag) Time Alt. Az. Time Alt. Az. Time Alt. Az.
12 Apr 6.9 01:25:36 10° NNE 01:28:27 14° NE 01:31:17 10° E visible
12 Apr 4.1 03:06:17 10° NNW 03:11:31 77° ENE 03:16:44 10° SSE visible
12 Apr 7.2 19:33:11 10° WNW 19:35:33 13° NW 19:37:55 10° NNW visible
13 Apr 4.9 02:30:26 10° NNW 02:35:30 49° ENE 02:40:33 10° SE visible
13 Apr 5.0 04:13:09 10° NW 04:17:19 25° W 04:21:28 10° SSW visible
13 Apr 6.9 18:55:31 10° W 18:59:10 19° NW 19:02:49 10° N visible
14 Apr 5.7 01:54:42 10° N 01:59:23 32° ENE 02:04:02 10° ESE visible
14 Apr 4.4 03:36:45 10° NW 03:41:34 39° WSW 03:46:23 10° S visible
15 Apr 6.3 01:19:07 10° N 01:23:09 22° NE 01:27:10 10° ESE visible
15 Apr 3.9 03:00:35 10° NNW 03:05:45 63° WSW 03:10:54 10° S visible
16 Apr 6.7 00:43:48 10° N 00:46:49 15° NE 00:49:49 10° E visible
16 Apr 4.0 02:24:35 10° NNW 02:29:50 82° ENE 02:35:03 10° SSE visible
16 Apr 5.6 04:08:32 10° WNW 04:11:14 14° W 04:13:55 10° SW visible
17 Apr 7.0 00:09:28 10° NNE 00:10:22 10° NE 00:11:16 10° NE visible
17 Apr 4.7 01:48:43 10° NNW 01:53:49 52° ENE 01:58:16 13° SE visible
17 Apr 5.1 03:31:32 10° NW 03:35:36 23° W 03:38:28 15° SW visible
18 Apr 5.5 01:12:57 10° N 01:17:42 34° ENE 01:21:29 15° ESE visible
18 Apr 4.5 02:55:06 10° NW 02:59:51 37° WSW 03:01:44 28° SW visible
19 Apr 6.1 00:37:21 10° N 00:41:29 23° NE 00:45:07 12° ESE visible
19 Apr 4.0 02:18:54 10° NNW 02:24:03 60° WSW 02:25:23 45° SSW visible
20 Apr 6.5 00:01:59 10° N 00:05:10 16° NE 00:08:20 10° E visible
20 Apr 3.9 01:42:53 10° NNW 01:48:08 86° ENE 01:49:15 57° SSE visible
20 Apr 5.7 03:27:02 10° WNW 03:29:29 13° W 03:29:32 13° W visible
20 Apr 6.8 23:27:21 10° NNE 23:28:44 11° NE 23:30:07 10° ENE visible
21 Apr 4.5 01:06:59 10° NNW 01:12:08 55° ENE 01:13:16 45° ESE visible
21 Apr 5.3 02:49:55 10° NW 02:53:33 22° W 02:53:33 22° W visible
